Location: Banff
(51.1667°N, 115.5667°W)
Time: 16:06:11
(UTC+00:00)

Vanguard 1 Rocket - All Passes

Search period start: 26 November 2020 00:00
Search period end: 06 December 2020 00:00
Orbit: 656 x 4221 km, 34.3° (Epoch: 25 November)

Date Brightness Start Highest point End Pass type
(mag) Time Alt. Az. Time Alt. Az. Time Alt. Az.
26 Nov - 06:12:29 10° SSE 06:21:08 13° SE 06:29:16 10° ESE visible
26 Nov - 08:28:15 10° SSW 08:48:29 32° SSE 09:03:42 10° E visible
26 Nov - 10:55:35 10° SW 11:16:47 43° S 11:29:48 10° ESE visible
26 Nov - 13:27:07 10° WSW 13:43:33 36° SSW 13:53:08 10° SE visible
26 Nov - 16:01:23 10° WSW 16:07:23 14° SW 16:12:01 10° SSW daylight
27 Nov - 07:17:26 10° S 07:35:28 25° SE 07:50:37 10° E visible
27 Nov - 09:41:42 10° SW 10:03:47 41° SSE 10:18:41 10° ESE visible
27 Nov - 12:11:57 10° WSW 12:31:39 42° S 12:43:11 10° SE visible
27 Nov - 14:44:50 10° W 14:56:55 25° SW 15:04:41 10° SSE visible
28 Nov - 06:09:06 10° SSE 06:22:46 18° SE 06:35:26 10° E visible
28 Nov - 08:28:53 10° SSW 08:50:30 36° SSE 09:06:52 10° E visible
28 Nov - 10:57:09 10° WSW 11:19:04 45° S 11:32:40 10° ESE visible
28 Nov - 13:29:11 10° W 13:45:48 34° SSW 13:55:42 10° SSE visible
28 Nov - 16:05:31 10° WSW 16:09:19 12° SW 16:12:36 10° SW daylight
29 Nov - 07:17:25 10° SSW 07:37:16 30° SE 07:54:06 10° E visible
29 Nov - 09:43:02 10° SW 10:05:56 44° S 10:21:35 10° ESE visible
29 Nov - 12:13:50 10° WSW 12:33:56 42° SSW 12:45:54 10° SE visible
29 Nov - 14:47:25 10° W 14:58:57 22° SW 15:06:42 10° S visible
30 Nov - 06:07:50 10° S 06:24:21 22° SE 06:39:50 10° E visible
30 Nov - 08:29:53 10° SW 08:52:30 41° SSE 09:09:50 10° E visible
30 Nov - 10:58:52 10° WSW 11:21:19 46° S 11:35:27 10° ESE visible
30 Nov - 13:31:21 10° W 13:47:55 32° SSW 13:58:06 10° SSE visible
01 Dec - 05:01:46 10° SSE 05:12:00 14° SE 05:22:13 10° ESE night (unlit)
01 Dec - 07:18:00 10° SSW 07:39:02 35° SSE 07:57:15 10° E visible
01 Dec - 09:44:34 10° WSW 10:08:05 47° S 10:24:24 10° ESE visible
01 Dec - 12:15:48 10° W 12:36:06 41° SSW 12:48:30 10° SE visible
01 Dec - 14:50:16 10° W 15:00:51 19° SW 15:08:21 10° S visible
02 Dec - 06:07:38 10° S 06:25:54 27° SE 06:43:27 10° E visible
02 Dec - 08:31:13 10° SW 08:54:28 44° SSE 09:12:40 10° E visible
02 Dec - 11:00:43 10° WSW 11:23:29 46° S 11:38:08 10° SE visible
02 Dec - 13:33:38 10° W 13:49:54 29° SW 14:00:18 10° SSE visible
03 Dec - 04:59:34 10° SSE 05:13:23 19° SE 05:27:32 10° E visible
03 Dec - 07:19:00 10° SSW 07:40:48 39° SSE 08:00:10 10° E visible
03 Dec - 09:46:18 10° WSW 10:10:10 48° S 10:27:07 10° ESE visible
03 Dec - 12:17:51 10° W 12:38:09 39° SSW 12:50:56 10° SE visible
03 Dec - 14:53:35 10° W 15:02:35 16° SW 15:09:26 10° SSW visible
04 Dec - 06:08:06 10° SSW 06:27:28 32° SE 06:46:38 10° E visible
04 Dec - 08:32:47 10° SW 08:56:25 47° SSE 09:15:24 10° ESE visible
04 Dec - 11:02:40 10° WSW 11:25:33 45° SSW 11:40:42 10° SE visible
04 Dec - 13:36:05 10° W 13:51:44 26° SW 14:02:13 10° S visible
05 Dec - 04:58:59 10° S 05:14:44 23° SE 05:31:31 10° E visible
05 Dec - 07:20:20 10° SW 07:42:35 43° SSE 08:02:56 10° E visible
05 Dec - 09:48:11 10° WSW 10:12:13 49° S 10:29:43 10° ESE visible
05 Dec - 12:20:01 10° W 12:40:05 36° SSW 12:53:11 10° SSE visible
05 Dec - 14:57:50 10° WSW 15:04:10 13° WSW 15:09:29 10° SW visible
